This is the latest recevied weather packets stored in our database for station/object DG4MND-4. If no packets are shown the sender has not sent any weather packets the latest 10 day(s).
| Time | Temp. | Humidity | Pressure | Rain* | Wind** | Luminosity | Snow |
|---|---|---|---|---|---|---|---|
| 1777139423 | 17.78° C | 35% | 1016 hPa | 0 mm | - | - | - |
| 1777138819 | 18.33° C | 35% | 1015.9 hPa | 0 mm | - | - | - |
| 1777138216 | 18.89° C | 33% | 1015.8 hPa | 0 mm | - | - | - |
| 1777137673 | 18.89° C | 33% | 1015.8 hPa | 0 mm | - | - | - |
| 1777137070 | 19.44° C | 32% | 1015.6 hPa | 0 mm | - | - | - |
| 1777136466 | 19.44° C | 32% | 1015.6 hPa | 0 mm | - | - | - |
| 1777135866 | 20° C | 32% | 1015.5 hPa | 0 mm | - | - | - |
| 1777135262 | 21.11° C | 32% | 1015.5 hPa | 0 mm | - | - | - |
| 1777134655 | 21.67° C | 32% | 1015.3 hPa | 0 mm | - | - | - |
| 1777134055 | 21.67° C | 32% | 1015.6 hPa | 0 mm | - | - | - |
| 1777133449 | 21.67° C | 31% | 1015.5 hPa | 0 mm | - | - | - |
| 1777132846 | 22.22° C | 30% | 1015.5 hPa | 0 mm | - | - | - |
| 1777132245 | 22.78° C | 31% | 1015.5 hPa | 0 mm | - | - | - |
| 1777131642 | 22.22° C | 30% | 1015.5 hPa | 0 mm | - | - | - |
| 1777131035 | 22.78° C | 29% | 1015.5 hPa | 0 mm | - | - | - |
| 1777130435 | 22.78° C | 29% | 1015.5 hPa | 0 mm | - | - | - |
| 1777129828 | 22.78° C | 29% | 1015.5 hPa | 0 mm | - | - | - |
| 1777129225 | 22.78° C | 29% | 1015.5 hPa | 0 mm | - | - | - |
| 1777128621 | 22.22° C | 29% | 1015.4 hPa | 0 mm | - | - | - |
| 1777128018 | 22.78° C | 29% | 1015.7 hPa | 0 mm | - | - | - |
| 1777127478 | 22.22° C | 28% | 1015.7 hPa | 0 mm | - | - | - |
| 1777126871 | 22.78° C | 28% | 1015.6 hPa | 0 mm | - | - | - |
| 1777126271 | 22.78° C | 28% | 1015.6 hPa | 0 mm | - | - | - |
| 1777125665 | 22.22° C | 29% | 1015.6 hPa | 0 mm | - | - | - |
| 1777125069 | 22.22° C | 28% | 1015.8 hPa | 0 mm | - | - | - |
* Rain latest hour (hover to see other rain measurements)
** Current wind speed in m/s (hover to see current wind gust speed)